Regional Weather Roundup
Issued by NWS Goodland, KS

Home | Current Version | Previous Version | Graphics & Text | Print | Product List | Glossary On
Versions: 1 2 3 4 5 6 7 8 9 10 11 12 13 14 15 16 17 18 19 20 21 22 23 24 25 26 27 28 29 30 31 32 33 34 35 36 37 38 39 40 41 42 43 44 45 46 47 48 49 50
000
ASUS43 KGLD 011059
RWRGLD

GOODLAND FORECAST AREA HOURLY WEATHER ROUNDUP
NATIONAL WEATHER SERVICE GOODLAND KS
400 AM MST SUN FEB 01 2015

...OFFICIAL OBSERVATIONS...

CITY           SKY/WX    TMP DP  RH WIND       PRES   REMARKS
GOODLAND KS    CLOUDY    20  17  88 N30G36    30.01R WCI   1
HILL CITY KS   LGT SNOW  21  15  78 N30G44    29.99R WCI   3
IMPERIAL NEB   CLOUDY    17  11  77 N22       30.07R WCI   0
MCCOOK NEB     CLOUDY    18  12  77 N18       30.04R WCI   2
AKRON CO       CLOUDY    22  21  96 N18       30.04R WCI   7
BURLINGTON CO  CLOUDY    23  18  81 N22G33    30.01R WCI   8
LIMON CO       LGT SNOW  22  20  92 N17       30.03R FOG     WCI   8
$$

...UNOFFICIAL OBSERVATIONS...

CITY           SKY/WX    TMP DP  RH WIND       PRES   REMARKS
COLBY KS       CLOUDY    19  18  93 NW18G26   30.01R WCI   4
GOVE KS          N/A     21  32 100 MISG        N/A
NORTON KS      LGT SNOW  18  12  79 NW30G36   29.99R WCI  -2
SHARON SPRINGS   N/A     24  21  88 N17G26      N/A  WCI  11
KIT CARSON CO    N/A     25  20  82 MISG        N/A
YUMA CO          N/A     23  19  85 N18         N/A  WCI   9
$$


USA.gov is the U.S. government's official web portal to all federal, state and local government web resources and services.